Location: Franzen
(48.6167°N, 15.3833°E)
Time: 13:53:40
(UTC+00:00)

Cosmos 2221 - Pass Details

Date: 22 April 2021
Orbit: 593 x 614 km, 82.5° (Epoch: 16 May)

Event Time Altitude Azimuth Distance (km) Brightness Sun altitude
Exits shadow 20:05:05 29° 91° (E) 1,103 3.5 -18.1°
Maximum altitude 20:05:08 29° 90° (E) 1,103 3.5 -18.1°
Drops below altitude 10° 20:08:51 10° 30° (NNE) 1,945 5.3 -18.5°
Sets 20:11:16 0° 19° (NNE) 2,856 6.4 -18.8°
